Visibility
15.0 15.0 15.0 15.0 15.0 15.0 15.0 15.0 15.0 15.0 15.0 15.0 15.0 15.0 15.0 15.0 15.0 15.0 15.0 15.0 15.0 15.0 15.0 15.0 15.0 15.0 15.0 15.0 15.0 15.0 15.0 15.0 15.0 15.0 15.0 15.0 15.0 15.0
15.0 15.0 15.0 15.0 15.0 15.0 15.0 15.0 15.0 15.0 15.0 15.0 15.0 15.0 15.0 15.0 15.0 15.0 15.0 15.0 15.0 15.0 15.0 15.0 15.0 15.0 15.0 15.0 15.0 15.0 15.0 15.0 15.0 15.0 15.0 15.0 15.0 15.0
15.0 15.0 15.0 15.0 15.0 15.0 15.0 15.0 15.0 15.0 15.0 15.0 15.0 15.0 15.0 15.0 15.0 15.0 15.0 15.0 15.0 15.0 8.5 15.0 6.5 15.0 15.0 15.0 15.0 15.0 15.0 15.0 15.0 15.0 15.0 15.0 15.0 15.0
15.0 15.0 15.0 15.0 15.0 15.0 15.0 15.0 15.0 15.0 15.0 15.0 15.0 15.0 15.0 15.0 15.0 15.0 15.0 15.0 15.0 15.0 15.0 15.0 14.8 12.4 15.0 15.0 15.0 15.0 15.0 15.0 15.0 15.0 15.0 15.0 15.0 15.0
15.0 15.0 15.0 15.0 15.0 15.0 15.0 15.0 10.8 15.0 15.0 15.0 15.0 15.0 15.0 15.0 15.0 15.0 15.0 15.0 15.0 15.0 15.0 15.0 15.0 15.0 15.0 15.0 15.0 15.0 15.0 15.0 15.0 15.0 15.0 15.0 15.0 15.0
13.6 15.0 15.0 15.0 15.0 15.0 15.0 15.0 15.0 13.2 15.0 15.0 15.0 15.0 15.0 15.0 15.0 15.0 15.0 15.0 15.0 15.0 15.0 15.0 15.0 15.0 15.0 15.0 15.0 15.0 15.0 15.0 15.0 15.0 15.0 15.0 15.0 15.0
15.0 15.0 15.0 15.0 15.0 15.0 15.0 15.0 9.5 15.0 14.6 15.0 15.0 15.0 15.0 15.0 15.0 15.0 15.0 15.0 15.0 15.0 15.0 15.0 15.0 15.0 15.0 15.0 15.0 15.0 15.0 15.0 15.0 15.0 13.5 15.0 15.0 15.0
15.0 15.0 15.0 15.0 15.0 15.0 15.0 15.0 15.0 11.6 15.0 15.0 15.0 15.0 15.0 15.0 15.0 15.0 15.0 15.0 15.0 15.0 15.0 15.0 15.0 15.0 15.0 15.0 15.0 14.1 14.9 11.1 13.9 11.1 13.5 15.0 15.0 15.0
15.0 15.0 15.0 15.0 15.0 15.0 15.0 15.0 15.0 15.0 15.0 15.0 15.0 15.0 15.0 15.0 15.0 15.0 15.0 15.0 15.0 15.0 15.0 15.0 15.0 15.0 15.0 15.0 12.6 9.5 9.4 10.9 10.1 11.1 15.0 15.0 15.0 15.0
15.0 15.0 15.0 15.0 15.0 15.0 15.0 1.1 13.9 15.0 15.0 15.0 15.0 15.0 15.0 15.0 15.0 15.0 15.0 15.0 15.0 15.0 15.0 15.0 15.0 6.5 0.3 3.7 5.8 9.5 10.5 10.5 13.3 12.3 15.0 15.0 15.0 15.0
15.0 15.0 15.0 15.0 15.0 15.0 7.9 10.7 15.0 15.0 15.0 15.0 15.0 15.0 15.0 15.0 15.0 15.0 15.0 15.0 15.0 15.0 2.6 15.0 1.8 14.2 11.9 13.6 9.3 9.5 10.9 10.3 10.3 14.3 15.0 15.0 15.0 15.0
13.8 15.0 12.9 15.0 15.0 15.0 15.0 15.0 0.3 15.0 15.0 15.0 14.0 15.0 15.0 15.0 15.0 15.0 15.0 15.0 11.6 0.2 14.6 14.7 15.0 7.2 2.8 15.0 14.4 12.2 14.8 14.8 14.7 15.0 15.0 15.0 15.0 15.0
0.1 0.1 1.7 15.0 15.0 15.0 15.0 15.0 15.0 15.0 15.0 13.5 0.2 0.1 0.1 0.4 0.7 4.5 15.0 15.0 14.1 12.6 8.1 14.7 12.1 11.0 7.6 15.0 15.0 12.5 0.1 15.0 15.0 15.0 15.0 15.0 15.0 15.0
0.1 3.5 14.2 15.0 15.0 15.0 4.2 15.0 14.1 15.0 0.3 0.1 0.1 0.1 0.1 0.1 0.2 10.0 14.7 15.0 15.0 9.8 9.8 11.1 1.1 15.0 15.0 15.0 15.0 15.0 15.0 15.0 15.0 15.0 15.0 15.0 15.0 15.0
15.0 14.4 14.9 15.0 15.0 15.0 15.0 15.0 15.0 7.7 0.1 0.1 0.1 0.1 1.3 3.9 13.5 9.7 15.0 15.0 15.0 15.0 15.0 15.0 14.1 15.0 15.0 15.0 15.0 15.0 15.0 15.0 15.0 15.0 15.0 15.0 15.0 15.0
12.6 15.0 15.0 12.8 15.0 3.9 15.0 15.0 15.0 15.0 8.4 2.7 15.0 5.7 1.2 5.5 9.5 15.0 13.7 7.0 11.8 6.3 15.0 14.0 13.4 14.9 1.3 15.0 15.0 15.0 15.0 15.0 15.0 15.0 15.0 15.0 15.0 15.0
11.5 10.2 0.2 0.1 0.1 0.2 12.8 15.0 15.0 15.0 15.0 15.0 15.0 15.0 11.3 15.0 15.0 15.0 15.0 15.0 15.0 9.9 8.5 5.5 10.0 15.0 15.0 15.0 15.0 15.0 15.0 15.0 15.0 15.0 15.0 15.0 15.0 15.0
10.3 0.3 0.1 0.1 0.1 0.1 0.7 15.0 15.0 15.0 15.0 15.0 15.0 15.0 15.0 15.0 0.6 5.5 15.0 15.0 15.0 7.0 1.3 0.7 8.2 15.0 15.0 15.0 15.0 15.0 15.0 15.0 15.0 15.0 15.0 15.0 15.0 15.0
0.0 0.0 0.1 0.1 0.1 0.1 0.3 15.0 15.0 15.0 14.7 15.0 15.0 15.0 15.0 15.0 14.9 14.9 15.0 9.8 0.8 0.4 0.4 0.8 0.8 11.3 15.0 15.0 15.0 15.0 15.0 15.0 15.0 15.0 15.0 15.0 15.0 15.0
0.0 0.0 0.0 0.0 0.0 0.1 0.1 0.2 11.7 15.0 15.0 15.0 15.0 15.0 14.9 9.1 0.3 11.5 8.0 1.4 0.4 0.5 0.3 0.2 2.0 15.0 15.0 15.0 15.0 15.0 15.0 15.0 15.0 15.0 15.0 15.0 15.0 15.0
1.4 0.3 0.0 0.0 0.0 0.0 0.1 0.1 0.2 0.0 0.0 0.0 0.4 4.5 15.0 1.5 0.9 8.9 7.1 5.8 2.7 0.9 0.4 0.5 3.8 15.0 15.0 15.0 15.0 15.0 15.0 15.0 15.0 15.0 15.0 15.0 15.0 15.0
7.3 9.9 11.3 4.3 0.0 0.0 0.0 0.0 0.0 0.0 0.0 0.0 0.3 1.4 1.5 2.7 2.4 4.9 7.5 1.4 1.9 14.5 0.4 0.2 0.4 15.0 15.0 15.0 15.0 15.0 15.0 15.0 15.0 15.0 15.0 15.0 15.0 15.0
6.0 5.1 6.5 15.0 15.0 0.5 0.0 0.0 0.0 0.1 0.1 0.2 14.1 2.5 0.3 0.2 0.3 0.5 0.5 1.2 3.9 1.1 1.3 0.5 0.3 3.0 15.0 15.0 15.0 15.0 15.0 15.0 15.0 15.0 15.0 15.0 15.0 15.0